Location: Sagn�
(15.2046°N, 12.7898°W)
Time: 12:45:30
(UTC+00:00)

GPS 2-18 Rocket1 - Pass Details

Date: 08 May 2021
Orbit: 457 x 510 km, 20.9° (Epoch: 15 June)

Event Time Altitude Azimuth Distance (km) Brightness Sun altitude
Rises 20:38:55 0° 267° (W) 2,477 7.7 -20.6°
Reaches altitude 10° 20:41:10 10° 272° (W) 1,595 6.6 -21.1°
Maximum altitude 20:44:44 50° 349° (N) 584 3.6 -21.9°
Enters shadow 20:45:05 48° 11° (N) 601 3.5 -21.9°
